PDT,Max TemperatureF,Mean TemperatureF,Min TemperatureF,Max Dew PointF,MeanDew PointF,Min DewpointF,Max Humidity, Mean Humidity, Min Humidity, Max Sea Level PressureIn, Mean Sea Level PressureIn, Min Sea Level PressureIn, Max VisibilityMiles, Mean VisibilityMiles, Min VisibilityMiles, Max Wind SpeedMPH, Mean Wind SpeedMPH, Max Gust SpeedMPH,PrecipitationIn, CloudCover, Events, WindDirDegrees
2013-3-1,57,53,48,54,50,46,100,96,86,30.52,30.44,30.36,10,7,1,9,4,,0.00,7,,231
2013-3-2,54,50,46,50,48,45,100,95,89,30.35,30.28,30.25,10,4,0,15,4,22,0.00,8,,304
2013-3-3,52,44,36,45,39,34,100,83,61,30.32,30.26,30.19,10,10,10,24,10,31,0.00,1,,10
2013-3-4,55,45,34,46,39,34,100,85,66,30.18,30.05,29.90,10,10,9,14,6,25,0.00,1,,195
2013-3-5,46,45,43,45,43,37,100,94,89,29.90,29.79,29.62,10,9,5,12,5,26,1.08,8,,156
2013-3-6,50,47,43,46,43,39,100,94,80,29.99,29.78,29.58,10,10,5,14,8,24,0.60,7,,170
2013-3-7,54,45,36,43,40,36,100,87,63,30.04,30.02,29.99,10,10,7,13,6,,0.00,1,,115
2013-3-8,52,43,34,45,40,34,100,91,74,30.25,30.10,30.03,10,7,0,16,8,22,0.00,6,,45
2013-3-9,57,47,37,46,43,36,100,89,66,30.52,30.42,30.25,10,10,7,14,6,21,0.00,2,,55
2013-3-10,57,47,36,50,42,34,100,87,55,30.51,30.48,30.44,10,9,3,9,4,,0.00,3,,18
2013-3-11,55,51,46,52,48,45,100,95,83,30.45,30.37,30.27,10,6,0,12,4,,0.00,5,,334
2013-3-12,55,51,46,52,48,45,100,97,89,30.27,30.25,30.23,10,7,0,10,4,,0.00,8,,260
2013-3-13,54,50,46,50,47,45,100,95,89,30.27,30.22,30.16,10,8,0,12,4,,0.00,6,,267
2013-3-14,63,54,45,48,47,45,100,86,64,30.26,30.19,30.12,10,10,6,13,7,21,0.00,8,,198
2013-3-15,57,53,48,54,50,46,100,93,80,30.27,30.26,30.24,10,8,1,9,4,,0.00,7,,275
2013-3-16,50,48,45,48,47,43,100,96,86,30.27,30.22,30.17,10,9,2,17,8,24,0.29,8,,240
2013-3-17,52,46,39,43,38,36,100,79,56,30.37,30.32,30.27,10,10,10,13,6,,0.00,3,,11
2013-3-18,55,45,34,46,39,34,100,83,50,30.31,30.22,30.09,10,10,10,22,7,27,0.00,0,,69
2013-3-19,57,51,45,52,45,37,100,81,57,30.09,29.94,29.72,10,10,3,15,7,25,0.58,8,,157
2013-3-20,55,49,43,52,45,36,100,86,65,30.28,29.95,29.68,10,9,2,27,16,38,0.23,8,,256
2013-3-21,48,43,37,43,39,36,100,87,61,30.41,30.36,30.28,10,10,5,10,6,24,0.05,7,,163
2013-3-22,48,42,36,39,37,34,100,85,61,30.42,30.40,30.38,10,10,5,15,8,20,0.03,4,,70
2013-3-23,50,41,32,37,36,32,100,82,56,30.41,30.33,30.25,10,10,10,20,7,23,0.00,1,,30
2013-3-24,52,44,36,43,39,36,100,82,59,30.26,30.18,30.09,10,10,9,12,4,,0.00,2,,354
2013-3-25,52,46,39,46,43,37,100,91,74,30.09,30.02,30.00,10,10,8,10,4,,0.00,4,,187
2013-3-26,55,51,46,48,46,45,100,87,72,30.04,30.01,29.95,10,10,10,9,4,,0.00,6,,65
2013-3-27,57,52,46,52,49,45,100,93,77,30.01,29.95,29.92,10,9,3,14,4,,0.01,8,,202
2013-3-28,57,53,48,52,50,46,100,93,83,30.16,30.08,30.01,10,10,7,10,3,,0.00,7,,314
2013-3-29,63,56,48,55,51,48,100,89,72,30.18,30.16,30.12,10,9,2,18,6,22,0.00,3,,352
2013-3-30,70,57,43,57,50,43,100,85,59,30.13,30.05,29.98,10,10,3,15,4,18,0.00,0,,275
2013-3-31,57,54,50,54,52,50,100,92,86,30.08,30.04,30.00,10,10,4,10,5,,0.00,5,,218